Location: Newcastle Observatory
(43.9158°N, 78.5831°W)
Time: 20:14:05
(UTC-04:00)

Amateur Radio Satellites - All Passes

Search period start: 16 October 2017 19:44
Search period end: 17 October 2017 19:44
Location: Newcastle Observatory, 43.9158°N, 78.5831°W

Satellite Date Start Highest point End Downlink Frequencies (MHz)
Time Altitude Azimuth
AO-73 16 Oct 19:46:50 19:50:23 23° 66° (ENE) 19:53:57 145.935
NUDT-PHONESAT 16 Oct 19:47:12 19:49:36 16° 268° (W) 19:52:00 437.300
PCSat 16 Oct 19:56:41 20:01:26 31° 250° (WSW) 20:06:09 145.827
STRAND 1 16 Oct 19:58:36 20:02:59 27° 95° (E) 20:07:18 437.568
YUBILEINY 16 Oct 20:00:35 20:07:17 23° 62° (ENE) 20:13:58 435.215
ZACube-1 16 Oct 20:05:22 20:09:35 38° 70° (ENE) 20:13:50 437.345
AAUSAT CUBESAT 2 16 Oct 20:08:39 20:12:42 61° 75° (ENE) 20:16:46 437.432
UWE-3 16 Oct 20:17:27 20:22:04 89° 73° (ENE) 20:26:47 435.000/436.395/437.385
STARS 16 Oct 20:24:22 20:27:24 18° 297° (WNW) 20:30:25 437.465
CUTE-I 16 Oct 20:24:26 20:26:28 12° 272° (W) 20:28:29 437.470
HO-68 16 Oct 20:41:41 20:47:52 31° 265° (W) 20:54:07 435.675
DELFI C3 16 Oct 20:44:20 20:45:58 12° 63° (ENE) 20:47:38 145.870
Oscar 11 16 Oct 20:49:51 20:54:09 67° 74° (ENE) 20:58:28 .
CUTE 1.7 + AOD 2 16 Oct 20:54:00 20:56:00 13° 270° (W) 20:58:00 437.475
XW-2A 16 Oct 20:54:02 20:56:46 22° 265° (W) 20:59:32 145.665 - 145.685
Max Valier Satellite 16 Oct 20:58:03 20:59:33 12° 63° (ENE) 21:01:03 145.860
CUBEBUG 2 16 Oct 21:08:30 21:11:40 18° 269° (W) 21:14:54 437.445
SEEDS 16 Oct 21:09:20 21:11:31 14° 270° (W) 21:13:43 437.485
FO-29 16 Oct 21:10:31 21:16:13 28° 94° (E) 21:22:23 435.910
BEESAT 3 16 Oct 21:12:47 21:15:36 18° 40° (NE) 21:18:22 437.485
AO-73 16 Oct 21:22:04 21:26:22 40° 263° (W) 21:30:41 145.935
STRAND 1 16 Oct 21:37:27 21:42:15 40° 292° (WNW) 21:47:01 437.568
ZACube-1 16 Oct 21:42:17 21:45:56 23° 267° (W) 21:49:37 437.345
AAUSAT CUBESAT 2 16 Oct 21:47:02 21:48:32 12° 271° (W) 21:50:03 437.432
YUBILEINY 16 Oct 21:56:22 22:05:12 83° 264° (W) 22:14:01 435.215
O/OREOS (USA 219) 16 Oct 21:58:45 22:03:12 57° 109° (ESE) 22:07:43 437.305
DELFI C3 16 Oct 22:16:23 22:20:14 58° 260° (W) 22:24:06 145.870
BEESAT 2 16 Oct 22:22:51 22:26:20 26° 45° (NE) 22:29:46 435.950
Oscar 11 16 Oct 22:29:05 22:30:43 12° 271° (W) 22:32:23 .
EO-88 16 Oct 22:29:08 22:32:48 77° 260° (W) 22:36:28 145.990 - 145.960
Max Valier Satellite 16 Oct 22:29:14 22:32:55 55° 260° (W) 22:36:36 145.860
UNISAT 6 16 Oct 22:33:12 22:37:25 33° 96° (E) 22:41:30 437.425
TIGRISAT 16 Oct 22:49:03 22:53:31 43° 98° (E) 22:57:51 435.000
BEESAT 3 16 Oct 22:49:35 22:53:29 58° 240° (WSW) 22:57:19 437.485
FO-29 16 Oct 22:55:01 23:01:29 59° 289° (WNW) 23:08:42 435.910
AO-85 16 Oct 22:58:44 23:03:03 45° 50° (NE) 23:07:41 145.980
PRISM 16 Oct 23:20:01 23:23:56 42° 99° (E) 23:27:51 437.425
LO-87 16 Oct 23:32:14 23:35:49 78° 76° (ENE) 23:39:26 145.935 - 145.965
O/OREOS (USA 219) 16 Oct 23:39:50 23:43:00 18° 308° (NW) 23:46:12 437.305
SPROUT 16 Oct 23:45:08 23:48:11 19° 64° (ENE) 23:51:14 437.525
ESTCUBE 1 16 Oct 23:48:43 23:53:13 81° 75° (ENE) 23:57:44 437.505/2401.250
YUBILEINY 16 Oct 23:55:26 00:00:34 17° 285° (WNW) 00:05:44 435.215
VELOX 1 16 Oct 23:58:07 00:01:15 20° 64° (ENE) 00:04:23 145.980
BEESAT 2 17 Oct 00:00:25 00:04:07 34° 243° (WSW) 00:07:45 435.950
UNISAT 6 17 Oct 00:10:03 00:13:59 28° 293° (WNW) 00:17:52 437.425
EO-79 17 Oct 00:21:46 00:24:58 20° 93° (E) 00:28:09 145.935-145.965
POLYITAN 1 17 Oct 00:25:11 00:28:33 22° 94° (E) 00:31:52 437.675
TIGRISAT 17 Oct 00:26:22 00:29:53 22° 296° (WNW) 00:33:21 435.000
AO-85 17 Oct 00:39:32 00:43:17 25° 246° (WSW) 00:47:14 145.980
FO-29 17 Oct 00:43:06 00:45:26 12° 307° (NW) 00:47:50 435.910
QB50P2 17 Oct 00:44:39 00:48:41 39° 98° (E) 00:52:41 145.880/145.840
AIST 2D 17 Oct 00:50:39 00:54:04 58° 285° (WNW) 00:57:28 435.315
NANOSAT C BR1 17 Oct 00:52:13 00:56:12 38° 98° (E) 01:00:09 145.865
PRISM 17 Oct 00:56:05 00:58:54 18° 296° (WNW) 01:01:43 437.425
DUCHIFAT 1 17 Oct 01:05:15 01:09:21 46° 99° (E) 01:13:25 145.980
RS-15 17 Oct 01:09:43 01:20:57 45° 109° (ESE) 01:32:12 29.354- 29.394
50 SAT 17 Oct 01:14:29 01:17:20 29° 71° (ENE) 01:20:14 437.505
DX 1 17 Oct 01:16:37 01:20:28 32° 68° (ENE) 01:24:19 434.975-435.025
SPROUT 17 Oct 01:19:42 01:23:46 42° 262° (W) 01:27:52 437.525
BUGSAT 1 17 Oct 01:29:44 01:33:07 23° 94° (E) 01:36:28 437.445
ESTCUBE 1 17 Oct 01:29:54 01:30:35 10° 272° (W) 01:31:15 437.505/2401.250
VELOX 1 17 Oct 01:33:12 01:37:22 44° 261° (W) 01:41:35 145.980
Oscar 19 17 Oct 01:33:57 01:36:39 14° 89° (E) 01:39:20 437.125/150
UKube-1 17 Oct 01:48:56 01:53:01 45° 71° (ENE) 01:57:08 .
EO-79 17 Oct 01:56:53 02:00:51 37° 290° (WNW) 02:04:47 145.935-145.965
POLYITAN 1 17 Oct 02:00:30 02:04:24 35° 291° (WNW) 02:08:15 437.675
QB50P2 17 Oct 02:21:02 02:24:12 20° 295° (WNW) 02:27:21 145.880/145.840
NANOSAT C BR1 17 Oct 02:28:28 02:31:39 21° 295° (WNW) 02:34:50 145.865
DUCHIFAT 1 17 Oct 02:41:49 02:44:39 18° 296° (WNW) 02:47:29 145.980
50 SAT 17 Oct 02:47:51 02:49:45 15° 267° (W) 02:51:41 437.505
M-CUBED/EXP-1 PRIME 17 Oct 02:53:07 02:56:31 58° 106° (ESE) 03:00:09 437.505
DX 1 17 Oct 02:53:07 02:56:39 24° 265° (W) 03:00:13 434.975-435.025
ITUPSAT 1 17 Oct 02:56:48 03:01:04 33° 67° (ENE) 03:05:21 437.325
BUGSAT 1 17 Oct 03:04:42 03:08:31 33° 291° (WNW) 03:12:18 437.445
MOZHAYETS 4 17 Oct 03:05:15 03:09:35 41° 70° (ENE) 03:13:57
CUBESAT XI-V 17 Oct 03:09:20 03:10:38 11° 59° (ENE) 03:11:57 437.345
Gurwin Techsat 1B 17 Oct 03:10:50 03:16:12 78° 104° (ESE) 03:21:31 435.225
Oscar 19 17 Oct 03:11:23 03:16:31 74° 286° (WNW) 03:21:36 437.125/150
BEESAT 17 Oct 03:14:39 03:19:15 49° 70° (ENE) 03:23:52 436.000
RS-15 17 Oct 03:20:49 03:33:04 65° 312° (NW) 03:45:16 29.354- 29.394
UKube-1 17 Oct 03:26:23 03:29:16 17° 267° (W) 03:32:09 .
ITAMSAT 1 17 Oct 03:37:20 03:39:42 13° 89° (E) 03:42:05 435.822/435.867
NO-84 17 Oct 03:46:39 03:48:12 12° 123° (ESE) 03:49:46 435.350 FM
AO-7 17 Oct 04:19:09 04:27:02 45° 100° (E) 04:34:53 .
M-CUBED/EXP-1 PRIME 17 Oct 04:29:36 04:30:36 11° 302° (WNW) 04:31:37 437.505
ITUPSAT 1 17 Oct 04:34:40 04:38:52 30° 264° (W) 04:43:05 437.325
CUBESAT XI-V 17 Oct 04:42:37 04:47:17 88° 69° (ENE) 04:51:55 437.345
MOZHAYETS 4 17 Oct 04:43:17 04:46:53 22° 267° (W) 04:50:30
Gurwin Techsat 1B 17 Oct 04:52:17 04:55:29 16° 301° (WNW) 04:58:41 435.225
Oscar 19 17 Oct 04:53:41 04:54:55 11° 305° (NW) 04:56:08 437.125/150
BEESAT 17 Oct 04:53:49 04:57:16 20° 267° (W) 05:00:45 436.000
KKS-1 17 Oct 05:00:54 05:05:05 43° 70° (ENE) 05:09:19 437.445
ITAMSAT 1 17 Oct 05:14:32 05:19:48 82° 286° (WNW) 05:25:02 435.822/435.867
NO-84 17 Oct 05:20:45 05:25:02 74° 140° (SE) 05:29:13 435.350 FM
RS-15 17 Oct 05:38:05 05:48:35 31° 342° (NNW) 05:58:53 29.354- 29.394
STARS 17 Oct 05:44:40 05:48:54 51° 71° (ENE) 05:53:11 437.465
DOVE 4 17 Oct 05:57:22 06:01:58 40° 97° (E) 06:06:46 437.250
AO-7 17 Oct 06:12:02 06:19:47 46° 299° (WNW) 06:27:32 .
O/OREOS (USA 219) 17 Oct 06:28:56 06:32:08 18° 52° (NE) 06:35:19 437.305
KKS-1 17 Oct 06:38:42 06:41:51 19° 267° (W) 06:45:01 437.445
LilacSat-2 17 Oct 06:45:53 06:49:11 28° 96° (E) 06:52:26 437.200
XW-2F 17 Oct 06:49:01 06:52:12 26° 96° (E) 06:55:21 145.980 - 146.000
KAITUO 1B 17 Oct 06:54:02 06:57:03 23° 95° (E) 07:00:02 145.475/437.950
ITAMSAT 1 17 Oct 06:56:15 06:58:25 13° 304° (NW) 07:00:35 435.822/435.867
CUTE-I 17 Oct 06:56:15 07:01:02 32° 96° (E) 07:05:47 437.470
XW-2D 17 Oct 06:58:03 07:01:34 37° 98° (E) 07:05:03 145.860 - 145.880
NO-84 17 Oct 06:59:06 07:02:48 28° 337° (NNW) 07:06:21 435.350 FM
XW-2B 17 Oct 07:11:15 07:14:56 52° 100° (E) 07:18:35 145.730 - 145.750
NUDT-PHONESAT 17 Oct 07:14:20 07:17:48 39° 98° (E) 07:21:14 437.300
STRAND 1 17 Oct 07:15:35 07:20:26 44° 69° (ENE) 07:25:19 437.568
STARS 17 Oct 07:22:51 07:25:33 16° 269° (W) 07:28:14 437.465
CUBEBUG 2 17 Oct 07:23:10 07:23:29 10° 86° (E) 07:23:47 437.445
FO-29 17 Oct 07:29:29 07:30:40 11° 52° (NE) 07:31:51 435.910
XW-2C 17 Oct 07:34:14 07:38:00 78° 282° (WNW) 07:41:42 145.795 - 145.815
DOVE 4 17 Oct 07:35:26 07:39:28 27° 293° (WNW) 07:43:39 437.250
SO-50 17 Oct 07:52:19 07:56:18 32° 116° (ESE) 08:00:18 436.795
RS-15 17 Oct 07:55:41 08:06:04 31° 17° (NNE) 08:16:03 29.354- 29.394
HO-68 17 Oct 08:06:24 08:13:24 50° 100° (E) 08:20:20 435.675
UWE-3 17 Oct 08:06:52 08:09:52 17° 90° (E) 08:12:49 435.000/436.395/437.385
O/OREOS (USA 219) 17 Oct 08:07:24 08:11:56 58° 251° (WSW) 08:16:26 437.305
AO-7 17 Oct 08:07:50 08:10:28 12° 322° (NW) 08:13:05 .
XW-2A 17 Oct 08:14:06 08:16:27 18° 94° (E) 08:18:46 145.665 - 145.685
LilacSat-2 17 Oct 08:20:25 08:23:19 21° 292° (WNW) 08:26:12 437.200
XW-2F 17 Oct 08:23:16 08:26:12 22° 292° (WNW) 08:29:06 145.980 - 146.000
KAITUO 1B 17 Oct 08:27:57 08:30:57 24° 292° (WNW) 08:33:57 145.475/437.950
XW-2D 17 Oct 08:33:03 08:35:27 16° 295° (WNW) 08:37:50 145.860 - 145.880
CUTE 1.7 + AOD 2 17 Oct 08:34:33 08:38:46 83° 284° (WNW) 08:42:58 437.475
CUTE-I 17 Oct 08:36:12 08:41:05 37° 293° (WNW) 08:45:58 437.470
Oscar 11 17 Oct 08:38:00 08:39:13 11° 88° (E) 08:40:24 .
NO-84 17 Oct 08:38:35 08:41:15 16° 357° (N) 08:43:48 435.350 FM
XW-2B 17 Oct 08:47:02 08:48:39 13° 297° (WNW) 08:50:17 145.730 - 145.750
SEEDS 17 Oct 08:49:02 08:53:13 88° 103° (ESE) 08:57:22 437.485
NUDT-PHONESAT 17 Oct 08:49:11 08:51:20 15° 295° (WNW) 08:53:29 437.300
STRAND 1 17 Oct 08:55:41 08:59:47 24° 267° (W) 09:03:56 437.568
CUBEBUG 2 17 Oct 08:56:01 09:00:45 87° 288° (WNW) 09:05:20 437.445
PCSat 17 Oct 08:56:41 09:01:10 27° 109° (ESE) 09:05:40 145.827
YUBILEINY 17 Oct 09:04:55 09:11:21 24° 79° (E) 09:17:48 435.215
AO-73 17 Oct 09:08:34 09:12:38 35° 96° (E) 09:16:34 145.935
FO-29 17 Oct 09:09:30 09:14:39 73° 73° (ENE) 09:20:09 435.910
AAUSAT CUBESAT 2 17 Oct 09:24:20 09:28:27 85° 287° (WNW) 09:32:35 437.432
ZACube-1 17 Oct 09:28:05 09:32:31 65° 100° (E) 09:36:48 437.345
Tancredo 1 17 Oct 09:31:54 09:32:18 10° 136° (SE) 09:32:42 437.200
SO-50 17 Oct 09:32:38 09:36:43 33° 314° (NW) 09:40:49 436.795
UNISAT 6 17 Oct 09:32:54 09:37:04 34° 68° (ENE) 09:41:18 437.425
UWE-3 17 Oct 09:42:12 09:46:38 49° 288° (WNW) 09:50:54 435.000/436.395/437.385
XW-2A 17 Oct 09:46:20 09:49:10 25° 290° (WNW) 09:51:58 145.665 - 145.685
TIGRISAT 17 Oct 09:48:29 09:52:52 44° 71° (ENE) 09:57:20 435.000
DELFI C3 17 Oct 09:52:44 09:55:05 15° 91° (E) 09:57:27 145.870
HO-68 17 Oct 09:54:30 10:00:53 36° 299° (WNW) 10:07:15 435.675
Max Valier Satellite 17 Oct 09:59:22 10:00:49 12° 90° (E) 10:02:13 145.860
RS-15 17 Oct 10:09:28 10:21:29 65° 48° (NE) 10:32:47 29.354- 29.394
PRISM 17 Oct 10:10:23 10:14:04 35° 70° (ENE) 10:17:47 437.425
Oscar 11 17 Oct 10:11:31 10:15:50 71° 285° (WNW) 10:20:05 .
NO-84 17 Oct 10:16:33 10:19:46 23° 19° (NNE) 10:22:46 435.350 FM
CUBEBUG 2 17 Oct 10:35:12 10:36:33 11° 302° (WNW) 10:37:54 437.445
PCSat 17 Oct 10:39:04 10:44:18 48° 307° (NW) 10:49:34 145.827
AO-73 17 Oct 10:45:10 10:48:39 23° 294° (WNW) 10:52:05 145.935
FO-29 17 Oct 10:57:57 11:00:33 14° 273° (W) 11:03:12 435.910
YUBILEINY 17 Oct 10:58:30 11:07:11 76° 280° (W) 11:15:57 435.215
Tancredo 1 17 Oct 11:02:10 11:03:57 38° 332° (NNW) 11:05:46 437.200
ZACube-1 17 Oct 11:05:55 11:08:14 14° 299° (WNW) 11:10:30 437.345
UNISAT 6 17 Oct 11:09:53 11:13:47 27° 266° (W) 11:17:46 437.425
EO-79 17 Oct 11:15:36 11:18:37 19° 64° (ENE) 11:21:40 145.935-145.965
POLYITAN 1 17 Oct 11:19:05 11:22:16 21° 65° (ENE) 11:25:29 437.675
AIST 2D 17 Oct 11:25:34 11:29:01 55° 75° (ENE) 11:32:28 435.315
DELFI C3 17 Oct 11:26:17 11:30:03 43° 288° (WNW) 11:33:49 145.870
TIGRISAT 17 Oct 11:26:19 11:29:45 20° 268° (W) 11:33:15 435.000
EO-88 17 Oct 11:29:45 11:33:22 71° 286° (WNW) 11:36:58 145.990 - 145.960
Max Valier Satellite 17 Oct 11:31:20 11:34:55 47° 287° (WNW) 11:38:26 145.860
nSIGHT-1 17 Oct 11:36:07 11:38:57 30° 139° (SE) 11:41:49 .
QB50P2 17 Oct 11:38:15 11:42:07 35° 70° (ENE) 11:46:02 145.880/145.840
ESTCUBE 1 17 Oct 11:41:00 11:43:36 15° 91° (E) 11:46:13 437.505/2401.250
NANOSAT C BR1 17 Oct 11:45:18 11:49:07 33° 69° (ENE) 11:52:58 145.865
PRISM 17 Oct 11:46:28 11:49:26 19° 266° (W) 11:52:25 437.425
NO-84 17 Oct 11:53:49 11:57:36 84° 218° (SW) 12:01:01 435.350 FM
DUCHIFAT 1 17 Oct 11:57:55 12:01:53 40° 71° (ENE) 12:05:53 145.980
ISS 17 Oct 11:59:38 12:02:45 44° 142° (SE) 12:05:54 437.550
BUGSAT 1 17 Oct 12:20:51 12:23:53 20° 65° (ENE) 12:26:58 437.445
RS-15 17 Oct 12:22:41 12:33:20 42° 253° (WSW) 12:43:29 29.354- 29.394
PCSat 17 Oct 12:27:06 12:29:05 12° 330° (NNW) 12:31:05 145.827
LO-87 17 Oct 12:30:47 12:34:26 80° 103° (ESE) 12:38:04 145.935 - 145.965
Tancredo 1 17 Oct 12:35:56 12:36:12 10° 351° (N) 12:36:29 437.200
BEESAT 3 17 Oct 12:41:21 12:43:45 16° 110° (ESE) 12:46:10 437.485
EO-79 17 Oct 12:50:02 12:54:04 42° 261° (W) 12:58:10 145.935-145.965
Oscar 19 17 Oct 12:51:29 12:55:41 26° 64° (ENE) 12:59:53 437.125/150
POLYITAN 1 17 Oct 12:53:47 12:57:48 39° 262° (W) 13:01:51 437.675
Gurwin Techsat 1B 17 Oct 12:55:22 12:59:12 21° 61° (ENE) 13:03:04 435.225
YUBILEINY 17 Oct 13:00:24 13:05:40 17° 303° (WNW) 13:10:59 435.215
SPROUT 17 Oct 13:03:51 13:07:34 28° 95° (E) 13:11:16 437.525
nSIGHT-1 17 Oct 13:12:07 13:15:11 41° 337° (NNW) 13:18:14 .
QB50P2 17 Oct 13:14:40 13:17:59 22° 266° (W) 13:21:21 145.880/145.840
ESTCUBE 1 17 Oct 13:16:22 13:20:45 55° 287° (WNW) 13:25:07 437.505/2401.250
NANOSAT C BR1 17 Oct 13:21:30 13:24:52 23° 266° (W) 13:28:16 145.865
VELOX 1 17 Oct 13:21:36 13:25:31 30° 96° (E) 13:29:24 145.980
AO-7 17 Oct 13:31:11 13:36:15 18° 45° (NE) 13:41:17 .
DUCHIFAT 1 17 Oct 13:34:40 13:37:42 19° 267° (W) 13:40:45 145.980
ISS 17 Oct 13:36:17 13:39:18 34° 340° (NNW) 13:42:20 437.550
M-CUBED/EXP-1 PRIME 17 Oct 13:40:23 13:43:51 81° 254° (WSW) 13:47:10 437.505
BEESAT 2 17 Oct 13:52:30 13:55:52 26° 114° (ESE) 13:59:16 435.950
BUGSAT 1 17 Oct 13:55:03 13:58:57 39° 262° (W) 14:02:57 437.445
50 SAT 17 Oct 14:04:14 14:06:53 22° 96° (E) 14:09:30 437.505
Tancredo 1 17 Oct 14:08:09 14:08:38 11° 11° (N) 14:09:08 437.200
BEESAT 3 17 Oct 14:16:57 14:20:53 53° 308° (NW) 14:24:51 437.485
Oscar 19 17 Oct 14:29:51 14:34:45 44° 261° (W) 14:39:42 437.125/150
Gurwin Techsat 1B 17 Oct 14:33:28 14:38:43 59° 259° (W) 14:43:59 435.225
DX 1 17 Oct 14:38:43 14:42:58 48° 100° (E) 14:47:11 434.975-435.025
SPROUT 17 Oct 14:39:43 14:43:24 28° 292° (WNW) 14:47:03 437.525
SO-50 17 Oct 14:43:18 14:44:23 11° 28° (NNE) 14:45:28 436.795
nSIGHT-1 17 Oct 14:49:34 14:52:03 20° 356° (N) 14:54:31 .
AO-85 17 Oct 14:54:46 14:58:38 81° 123° (ESE) 15:02:37 145.980
ITAMSAT 1 17 Oct 14:55:50 14:59:58 25° 63° (ENE) 15:04:09 435.822/435.867
VELOX 1 17 Oct 14:58:06 15:01:52 28° 293° (WNW) 15:05:39 145.980
UKube-1 17 Oct 15:09:58 15:14:17 68° 102° (ESE) 15:18:35 .
ISS 17 Oct 15:13:54 15:16:26 20° 360° (N) 15:19:00 437.550
BEESAT 17 Oct 15:16:05 15:17:03 11° 88° (E) 15:18:00 436.000
AO-7 17 Oct 15:19:21 15:27:33 69° 67° (ENE) 15:35:47 .
BEESAT 2 17 Oct 15:29:49 15:33:28 33° 313° (NW) 15:37:11 435.950
50 SAT 17 Oct 15:36:35 15:39:06 21° 292° (WNW) 15:41:39 437.505
Tancredo 1 17 Oct 15:38:56 15:40:44 47° 29° (NNE) 15:42:31 437.200
BEESAT 3 17 Oct 15:59:13 15:59:20 10° 328° (NNW) 15:59:26 437.485
DX 1 17 Oct 16:15:50 16:18:47 18° 297° (WNW) 16:21:43 434.975-435.025
SO-50 17 Oct 16:21:34 16:26:00 45° 49° (NE) 16:30:28 436.795
nSIGHT-1 17 Oct 16:26:12 16:29:01 28° 16° (NNE) 16:31:51 .
ITUPSAT 1 17 Oct 16:32:49 16:37:36 62° 102° (ESE) 16:42:20 437.325
ITAMSAT 1 17 Oct 16:34:11 16:39:09 46° 261° (W) 16:44:10 435.822/435.867
MOZHAYETS 4 17 Oct 16:35:25 16:40:03 79° 104° (ESE) 16:44:35
AO-85 17 Oct 16:37:22 16:39:35 14° 324° (NW) 16:41:53 145.980
CUBESAT XI-V 17 Oct 16:38:29 16:41:48 19° 92° (E) 16:45:07 437.345
UKube-1 17 Oct 16:47:40 16:49:45 13° 299° (WNW) 16:51:51 .
ISS 17 Oct 16:50:33 16:53:35 34° 20° (NNE) 16:56:37 437.550
BEESAT 17 Oct 16:50:38 16:55:27 87° 286° (WNW) 17:00:14 436.000
DOVE 4 17 Oct 17:04:38 17:08:31 40° 71° (ENE) 17:12:33 437.250
AO-7 17 Oct 17:14:04 17:20:54 28° 266° (W) 17:27:48 .
LilacSat-2 17 Oct 17:29:29 17:32:10 18° 66° (ENE) 17:34:51 437.200
XW-2F 17 Oct 17:31:38 17:34:07 17° 66° (ENE) 17:36:36 145.980 - 146.000
KAITUO 1B 17 Oct 17:36:00 17:38:09 15° 65° (ENE) 17:40:17 145.475/437.950
XW-2D 17 Oct 17:40:41 17:43:43 23° 68° (ENE) 17:46:45 145.860 - 145.880
PCSat 17 Oct 17:42:16 17:47:09 33° 48° (NE) 17:52:00 145.827
XW-2B 17 Oct 17:53:37 17:57:00 30° 70° (ENE) 18:00:22 145.730 - 145.750
NUDT-PHONESAT 17 Oct 17:54:48 17:57:46 23° 68° (ENE) 18:00:42 437.300
nSIGHT-1 17 Oct 18:02:19 18:05:31 66° 215° (SW) 18:08:42 .
SO-50 17 Oct 18:02:31 18:06:13 24° 247° (WSW) 18:09:57 436.795
ITUPSAT 1 17 Oct 18:11:51 18:14:55 17° 299° (WNW) 18:17:58 437.325
MOZHAYETS 4 17 Oct 18:14:32 18:16:32 13° 300° (WNW) 18:18:32
CUBESAT XI-V 17 Oct 18:15:01 18:19:23 45° 289° (WNW) 18:23:45 437.345
XW-2C 17 Oct 18:16:13 18:19:58 58° 75° (ENE) 18:23:43 145.795 - 145.815
CUTE-I 17 Oct 18:19:17 18:24:28 59° 71° (ENE) 18:29:43 437.470
CUBEBUG 2 17 Oct 18:21:47 18:23:24 12° 59° (ENE) 18:25:01 437.445
KKS-1 17 Oct 18:26:21 18:30:52 73° 103° (ESE) 18:35:20 437.445
ISS 17 Oct 18:26:59 18:30:08 45° 218° (SW) 18:33:17 437.550
BEESAT 17 Oct 18:30:49 18:32:27 12° 303° (WNW) 18:34:04 436.000
HO-68 17 Oct 18:36:24 18:43:03 43° 64° (ENE) 18:49:44 435.675
DOVE 4 17 Oct 18:43:35 18:46:27 18° 269° (W) 18:49:23 437.250
LilacSat-2 17 Oct 19:02:40 19:06:12 34° 263° (W) 19:09:44 437.200
XW-2F 17 Oct 19:04:24 19:07:56 37° 262° (W) 19:11:29 145.980 - 146.000
UWE-3 17 Oct 19:04:59 19:08:08 18° 63° (ENE) 19:11:17 435.000/436.395/437.385
KAITUO 1B 17 Oct 19:08:12 19:11:46 42° 261° (W) 19:15:21 145.475/437.950
STARS 17 Oct 19:08:25 19:12:53 83° 104° (ESE) 19:17:19 437.465
YUBILEINY 17 Oct 19:12:57 19:16:31 13° 52° (NE) 19:20:04 435.215
XW-2D 17 Oct 19:14:32 19:17:47 26° 264° (W) 19:21:02 145.860 - 145.880
PCSat 17 Oct 19:25:33 19:30:39 43° 247° (WSW) 19:35:44 145.827
STRAND 1 17 Oct 19:26:16 19:28:43 13° 89° (E) 19:31:09 437.568
CUTE 1.7 + AOD 2 17 Oct 19:27:57 19:32:10 80° 78° (ENE) 19:36:26 437.475
NUDT-PHONESAT 17 Oct 19:28:21 19:31:30 26° 265° (W) 19:34:40 437.300
XW-2B 17 Oct 19:28:23 19:31:12 20° 266° (W) 19:34:02 145.730 - 145.750
Oscar 11 17 Oct 19:34:28 19:35:55 11° 60° (ENE) 19:37:21 .
